Flag for Indonesia Weather past 2 weeks in Medan, North Sumatra, Indonesia

Now
79 °F

Passing clouds.


Feels Like: 82 °F
Forecast: 78 / 94 °F
Wind: 3 mph from West

Location: Medan / Polonia

Current Time: Jul 1, 2015 at 3:50:05 AM

Latest Report: Jul 1, 2015 at 3:00 AM


Visibility: 5 mi

Pressure: 29.86 "Hg

Humidity: 89%

Dew point: 75 °F

Location of MedanLocation

Historic Weather in Medan — Graph

°F

Medan temperature yesterday

Maximum temperature yesterday: 93 °F (at 11:30 AM)
Minimum temperature yesterday: 75 °F (at 5:00 AM)
Average temperature yesterday: 85 °F

Past Weeks' High & Low Weather Summary

 TemperatureHumidityPressure
High97 °F (Jun 19, 2:00 PM)100% (Jun 16, 2:30 AM)29.95 "Hg (Jun 16, 2:30 AM)
Low75 °F (Jun 30, 5:00 AM)42% (Jun 28, 1:00 PM)29.68 "Hg (Jun 16, 4:30 PM)
Average85 °F83%29.80 "Hg
* Reported Jun 16 2:00 AM — Jul 1 2:00 AM, Medan, Weather by CustomWeather, © 2015

Note: Actual official high and low records may vary slightly from our data, if they occured in-between our weather recording intervals... More about our weather records

Advertising

Medan weather history for previous 24 hours

 ConditionsComfort  
Time TempWeatherWind HumidityBarometerVisibility
2:00 AM
Wed, Jul 1
81 °FPassing clouds.7 mph89%29.89 "Hg5 mi
1:30 AM81 °FPartly cloudy.6 mph94%29.92 "Hg6 mi
1:00 AM81 °FPassing clouds.6 mph94%29.92 "HgN/A
12:00 AM82 °FPassing clouds.7 mph79%29.92 "Hg6 mi
11:30 PM
Tue, Jun 30
82 °FPassing clouds.5 mph94%29.92 "Hg3 mi
11:00 PM82 °FPassing clouds.2 mph94%29.95 "Hg2 mi
10:00 PM82 °FPassing clouds.2 mph94%29.92 "Hg3 mi
9:30 PM82 °FPassing clouds.No wind94%29.92 "Hg3 mi
9:00 PM84 °FPassing clouds.2 mph89%29.92 "Hg3 mi
8:30 PM84 °FPassing clouds.2 mph89%29.89 "Hg3 mi
8:00 PM84 °FWarm.No wind84%29.86 "Hg5 mi
7:00 PM84 °FPassing clouds.5 mph84%29.83 "Hg5 mi
6:30 PM86 °FPassing clouds.6 mph79%29.83 "Hg5 mi
6:00 PM88 °FPassing clouds.8 mph70%29.83 "HgN/A
5:30 PM88 °FPassing clouds.12 mph70%29.83 "HgN/A
5:00 PM90 °FPassing clouds.8 mph67%29.80 "HgN/A
4:30 PM90 °FPassing clouds.12 mph67%29.80 "HgN/A
4:00 PM91 °FPassing clouds.10 mph63%29.80 "HgN/A
3:30 PM93 °FPassing clouds.12 mph56%29.83 "HgN/A
3:00 PM93 °FPassing clouds.10 mph56%29.83 "HgN/A
2:30 PM93 °FScattered clouds.14 mph53%29.83 "HgN/A
2:00 PM93 °FScattered clouds.10 mph53%29.83 "HgN/A
1:30 PM93 °FScattered clouds.8 mph53%29.86 "HgN/A
1:00 PM93 °FScattered clouds.8 mph59%29.86 "HgN/A
12:30 PM93 °FScattered clouds.9 mph56%29.86 "HgN/A
12:00 PM93 °FScattered clouds.8 mph56%29.89 "HgN/A
11:30 AM93 °FScattered clouds.3 mph56%29.89 "HgN/A
11:00 AM91 °FScattered clouds.6 mph63%29.89 "HgN/A
10:30 AM91 °FPassing clouds.No wind63%29.92 "HgN/A
10:00 AM90 °FPassing clouds.3 mph67%29.92 "HgN/A
9:30 AM88 °FPassing clouds.5 mph70%29.92 "Hg5 mi
9:00 AM86 °FPassing clouds.6 mph75%29.92 "Hg4 mi
8:30 AM84 °FHaze.5 mph79%29.92 "Hg3 mi
8:00 AM81 °FHaze.7 mph89%29.92 "Hg3 mi
7:30 AM79 °FHaze.7 mph94%29.89 "Hg2 mi
7:00 AM77 °FScattered clouds.6 mph94%29.89 "Hg2 mi
6:30 AM75 °FScattered clouds.5 mph100%29.89 "Hg2 mi
6:00 AM75 °FPassing clouds.3 mph100%29.89 "Hg2 mi
5:30 AM75 °FPassing clouds.3 mph100%29.89 "Hg2 mi
5:00 AM75 °FPassing clouds.5 mph100%29.86 "Hg3 mi
4:30 AM77 °FPassing clouds.3 mph94%29.86 "Hg2 mi
4:00 AM77 °FPassing clouds.3 mph94%29.86 "Hg3 mi
3:30 AM77 °FPassing clouds.5 mph94%29.86 "Hg3 mi
3:00 AM77 °FPassing clouds.3 mph94%29.86 "Hg3 mi
Weather by CustomWeather, © 2015

See weather overviewHow to use our weather pages